When you browse on this site, cookies collect data to enhance your experience and personalize the content and advertising you see.
Visit our Privacy Policy to learn more. By continuing to use the site, you agree to this use of cookies and data.
  • In Hungary
  • List of Countries
  • For 7 days
  • Water Temperature
  • Satellite Maps
  • Weather Map
  • News
  • Weather Widgets
  • user-avatar
    Login

    Hourly Weather Sciegnia

    Today, 24 May, Friday

    Time Temperature Precipitation Wind Pressure Humidity
    00:00 +12°C° 0.4 mm 4 mps 732 mmHg 97%
    01:00 +12°C° 0.4 mm 4 mps 732 mmHg 97%
    02:00 +11°C° 0.1 mm 3 mps 732 mmHg 97%
    03:00 +11°C° 0.1 mm 3 mps 732 mmHg 97%
    04:00 +11°C° 0.1 mm 3 mps 732 mmHg 97%
    05:00 +11°C° 0 mm 3 mps 733 mmHg 96%
    06:00 +11°C° 0 mm 3 mps 733 mmHg 95%
    07:00 +11°C° 0 mm 3 mps 733 mmHg 94%
    08:00 +12°C° 0 mm 3 mps 733 mmHg 91%
    09:00 +14°C° 0 mm 2 mps 733 mmHg 89%
    10:00 +14°C° 0 mm 2 mps 733 mmHg 86%
    11:00 +15°C° 0 mm 2 mps 733 mmHg 82%
    12:00 +16°C° 0 mm 2 mps 733 mmHg 78%
    13:00 +17°C° 0 mm 2 mps 733 mmHg 74%
    14:00 +17°C° 0 mm 2 mps 732 mmHg 74%
    15:00 +17°C° 0 mm 3 mps 732 mmHg 73%
    16:00 +18°C° 0 mm 3 mps 732 mmHg 72%
    17:00 +17°C° 0 mm 2 mps 732 mmHg 76%
    18:00 +16°C° 0 mm 2 mps 731 mmHg 80%
    19:00 +16°C° 0 mm 2 mps 731 mmHg 84%
    20:00 +15°C° 0 mm 1 mps 731 mmHg 86%
    21:00 +14°C° 0 mm 1 mps 731 mmHg 88%
    22:00 +13°C° 0 mm 1 mps 731 mmHg 90%
    23:00 +12°C° 0 mm 1 mps 731 mmHg 91%

    Tomorrow, 25 May, Saturday

    Time Temperature Precipitation Wind Pressure Humidity
    00:00 +12°C° 0 mm 1 mps 731 mmHg 92%
    01:00 +11°C° 0 mm 1 mps 731 mmHg 92%
    02:00 +11°C° 0 mm 1 mps 731 mmHg 92%
    03:00 +10°C° 0 mm 1 mps 731 mmHg 93%
    04:00 +9°C° 0 mm 2 mps 731 mmHg 93%
    05:00 +12°C° 0 mm 2 mps 731 mmHg 85%
    06:00 +14°C° 0 mm 2 mps 731 mmHg 76%
    07:00 +16°C° 0 mm 2 mps 731 mmHg 68%
    08:00 +17°C° 0 mm 2 mps 731 mmHg 62%
    09:00 +19°C° 0 mm 3 mps 731 mmHg 55%
    10:00 +20°C° 0 mm 3 mps 732 mmHg 48%
    11:00 +21°C° 0 mm 3 mps 731 mmHg 48%
    12:00 +21°C° 0 mm 3 mps 731 mmHg 48%
    13:00 +22°C° 0 mm 3 mps 731 mmHg 48%
    14:00 +21°C° 0.3 mm 3 mps 731 mmHg 54%
    15:00 +21°C° 0.3 mm 4 mps 731 mmHg 60%
    16:00 +20°C° 0.3 mm 4 mps 730 mmHg 65%
    17:00 +19°C° 0.1 mm 3 mps 730 mmHg 71%
    18:00 +18°C° 0.1 mm 2 mps 730 mmHg 77%
    19:00 +16°C° 0.1 mm 2 mps 730 mmHg 83%
    20:00 +15°C° 0 mm 2 mps 731 mmHg 86%
    21:00 +14°C° 0 mm 1 mps 731 mmHg 88%
    22:00 +13°C° 0 mm 1 mps 731 mmHg 91%
    23:00 +13°C° 0 mm 1 mps 731 mmHg 91%

    Day after tomorrow, 26 May, Sunday

    Time Temperature Precipitation Wind Pressure Humidity
    00:00 +12°C° 0 mm 1 mps 731 mmHg 91%
    01:00 +12°C° 0 mm 1 mps 731 mmHg 90%
    02:00 +12°C° 0 mm 1 mps 731 mmHg 90%
    03:00 +12°C° 0 mm 1 mps 731 mmHg 89%
    04:00 +11°C° 0 mm 1 mps 731 mmHg 89%
    05:00 +13°C° 0 mm 1 mps 731 mmHg 83%
    06:00 +15°C° 0 mm 1 mps 731 mmHg 77%
    07:00 +18°C° 0 mm 1 mps 732 mmHg 72%
    08:00 +17°C° 0.4 mm 2 mps 732 mmHg 74%
    09:00 +17°C° 0.4 mm 2 mps 731 mmHg 77%
    10:00 +18°C° 0.4 mm 3 mps 731 mmHg 79%
    11:00 +19°C° 0.3 mm 3 mps 731 mmHg 75%
    12:00 +19°C° 0.3 mm 4 mps 731 mmHg 70%
    13:00 +20°C° 0.3 mm 5 mps 731 mmHg 66%
    14:00 +21°C° 0.1 mm 5 mps 731 mmHg 63%
    15:00 +21°C° 0.1 mm 4 mps 731 mmHg 60%
    16:00 +21°C° 0.1 mm 4 mps 731 mmHg 57%
    17:00 +19°C° 0 mm 3 mps 731 mmHg 64%
    18:00 +18°C° 0 mm 3 mps 731 mmHg 70%
    19:00 +17°C° 0 mm 2 mps 731 mmHg 77%
    20:00 +15°C° 0 mm 1 mps 731 mmHg 80%
    21:00 +14°C° 0 mm 1 mps 731 mmHg 83%
    22:00 +12°C° 0 mm 0 mps 731 mmHg 87%
    23:00 +13°C° 0 mm 1 mps 731 mmHg 87%

    27 May, Monday

    Time Temperature Precipitation Wind Pressure Humidity
    00:00 +13°C° 0 mm 1 mps 731 mmHg 87%
    01:00 +13°C° 0 mm 1 mps 731 mmHg 87%
    02:00 +12°C° 0 mm 1 mps 731 mmHg 88%
    03:00 +12°C° 0 mm 1 mps 731 mmHg 90%
    04:00 +12°C° 0 mm 1 mps 731 mmHg 91%
    05:00 +14°C° 0 mm 2 mps 731 mmHg 87%
    06:00 +16°C° 0 mm 3 mps 731 mmHg 82%
    07:00 +18°C° 0 mm 3 mps 731 mmHg 77%
    08:00 +19°C° 0 mm 3 mps 731 mmHg 71%
    09:00 +21°C° 0 mm 4 mps 731 mmHg 64%
    10:00 +22°C° 0 mm 4 mps 731 mmHg 57%
    11:00 +23°C° 0.1 mm 4 mps 730 mmHg 57%
    12:00 +23°C° 0.1 mm 4 mps 730 mmHg 57%
    13:00 +25°C° 0.1 mm 4 mps 730 mmHg 57%
    14:00 +22°C° 0.6 mm 4 mps 729 mmHg 66%
    15:00 +21°C° 0.6 mm 3 mps 729 mmHg 75%
    16:00 +20°C° 0.6 mm 3 mps 729 mmHg 84%
    17:00 +19°C° 0.2 mm 3 mps 729 mmHg 86%
    18:00 +18°C° 0.2 mm 2 mps 729 mmHg 89%
    19:00 +18°C° 0.2 mm 2 mps 729 mmHg 91%
    20:00 +17°C° 0 mm 2 mps 729 mmHg 91%
    21:00 +18°C° 0 mm 1 mps 729 mmHg 90%
    22:00 +16°C° 0 mm 1 mps 729 mmHg 90%
    23:00 +16°C° 0 mm 1 mps 729 mmHg 90%

    28 May, Tuesday

    Time Temperature Precipitation Wind Pressure Humidity
    00:00 +16°C° 0 mm 1 mps 729 mmHg 91%
    01:00 +14°C° 0 mm 0 mps 728 mmHg 91%
    02:00 +14°C° 0.7 mm 0 mps 728 mmHg 92%
    03:00 +14°C° 0.7 mm 0 mps 728 mmHg 93%
    04:00 +15°C° 0.7 mm 0 mps 728 mmHg 95%
    05:00 +16°C° 0.7 mm 1 mps 728 mmHg 95%
    06:00 +16°C° 0.7 mm 1 mps 728 mmHg 95%
    07:00 +18°C° 0.7 mm 1 mps 727 mmHg 94%
    08:00 +19°C° 0.2 mm 1 mps 727 mmHg 87%
    09:00 +20°C° 0.2 mm 2 mps 727 mmHg 80%
    10:00 +23°C° 0.2 mm 2 mps 727 mmHg 73%
    11:00 +24°C° 0.6 mm 2 mps 727 mmHg 70%
    12:00 +24°C° 0.6 mm 2 mps 727 mmHg 68%
    13:00 +25°C° 0.6 mm 2 mps 726 mmHg 66%
    14:00 +24°C° 1.2 mm 1 mps 726 mmHg 71%
    15:00 +23°C° 1.2 mm 1 mps 726 mmHg 76%
    16:00 +20°C° 1.2 mm 0 mps 726 mmHg 81%
    17:00 +19°C° 0.9 mm 0 mps 726 mmHg 83%
    18:00 +20°C° 0.9 mm 1 mps 726 mmHg 85%
    19:00 +19°C° 0.9 mm 1 mps 725 mmHg 87%
    20:00 +17°C° 0.9 mm 0 mps 725 mmHg 88%
    21:00 +16°C° 0.9 mm 0 mps 725 mmHg 88%
    22:00 +15°C° 0.9 mm 0 mps 725 mmHg 89%
    23:00 +15°C° 0 mm 0 mps 725 mmHg 90%

    29 May, Wednesday

    Time Temperature Precipitation Wind Pressure Humidity
    00:00 +15°C° 0 mm 1 mps 726 mmHg 90%
    01:00 +15°C° 0 mm 1 mps 726 mmHg 91%
    02:00 +15°C° 0 mm 1 mps 726 mmHg 92%
    03:00 +14°C° 0 mm 1 mps 726 mmHg 93%
    04:00 +14°C° 0 mm 1 mps 726 mmHg 94%
    05:00 +15°C° 0 mm 2 mps 726 mmHg 91%
    06:00 +16°C° 0 mm 2 mps 727 mmHg 89%
    07:00 +18°C° 0 mm 2 mps 727 mmHg 87%
    08:00 +19°C° 0.5 mm 3 mps 728 mmHg 83%
    09:00 +20°C° 0.5 mm 3 mps 728 mmHg 80%
    10:00 +21°C° 0.5 mm 4 mps 728 mmHg 76%
    11:00 +21°C° 0.4 mm 4 mps 728 mmHg 74%
    12:00 +22°C° 0.4 mm 4 mps 729 mmHg 71%
    13:00 +22°C° 0.4 mm 4 mps 729 mmHg 68%
    14:00 +22°C° 0.7 mm 3 mps 729 mmHg 72%
    15:00 +21°C° 0.7 mm 3 mps 729 mmHg 75%
    16:00 +21°C° 0.7 mm 3 mps 729 mmHg 78%
    17:00 +20°C° 0.3 mm 2 mps 729 mmHg 83%
    18:00 +19°C° 0.3 mm 2 mps 730 mmHg 88%
    19:00 +17°C° 0.3 mm 2 mps 730 mmHg 92%
    20:00 +16°C° 0.1 mm 2 mps 730 mmHg 94%
    21:00 +16°C° 0.1 mm 2 mps 731 mmHg 96%
    22:00 +15°C° 0.1 mm 2 mps 731 mmHg 98%
    23:00 +14°C° 0 mm 1 mps 731 mmHg 98%
    Show more